STARLINK-1494, 45760

Orbit data source: Space-Track

STARLINK-1494, 45760 is a payload satellite owned by SpaceX/Seattle (US) in LEO that was launched on Sat, 13 Jun 2020 UTC via an FALCON 9 launch vehicle from the Air Force Eastern Test Range (AFETR). Payload-class satellites include a variety of spacecraft equipped with specific instruments for various scientific and technological missions. These include communications satellites like Starlink; space stations such as the ISS; scientific satellites like the Hubble; Earth observation satellites from companies like Planet Labs, Umbra, and HawkEye 360; GPS; miniature CubeSats for education and research; and military/defense satellites.

Loading next visibility...
Identifier
45760, 2020-038AG
Orbit
LEO
Last TLE update
7 hours ago
Origin
Manufacturer
SpaceX/Seattle
Mission
Operational Commercial Communications
Bus & Motor
STARLINK, Unknown motor
Mass
260 kg wet, ~248 kg dry
Launch date (UTC)
2020-06-13 (5 years ago)
Launch vehicle
FALCON 9
Launch site
Air Force Eastern Test Range (AFETR)
Object type
Payload
Rocket body
Debris
Shape & HBR
Box + 1 Pan, 4.4 m
Radar Cross Section
13.562 m², Large (>1 m²)

Expand to show TLE details & history

TLE from 7 hours ago
0 STARLINK-1494
1 45760U 20038AG  25200.18317246  .00000818  00000-0  73786-4 0  9998
2 45760  53.0547 184.8712 0001115  53.3965 306.7126 15.06412203282201
Epoch: 2025-07-19T04:23Z
TLE epoch observation values (Epoch: 2025-07-19T04:23:46.1Z)
Latitude
-0.00006°
Longitude
-178.29487°
Altitude
547.592 km
Speed
7.59 km/s
True Right ascension
12h 19m 29s
True Declination
0° 00' 00"
Sunlit
Object was in daylight at epoch
Visualization orbit readout
Latitude
-49.54387°
Longitude
61.59889°
Altitude
564.977 km
Speed
7.578 km/s
Apparent Right ascension
08h 49m 01s
Apparent Declination
-65° 15' 37"
Sunlit
Object is in daylight
Visualization observer readout
Local Sidereal Time
00:42:21
Azimuth
147.337° SSE
Elevation
-48.701°
Doppler factor
1
Orbital elements
Apogee altitude
548.217 km
Perigee altitude
546.673 km
Semi-major axis
6,925.582 km
Eccentricity
0.00011
Inclination
53.0547°
RAAN
184.8712°
Arg. of periapsis
53.3965°
True anomaly
306.70236°
Mean anomaly
306.7126°
Eccentric anomaly
306.70748°
Mean motion
3.76581 °/min
Orbital period
95.6 mins
BSTAR
0.000073786
Loading maneuver chart data...
Loading SW <> Apogee altitude chart data...
|